Simultaneous Nadir Overpasses (SNOs) Predictions

Prediction of SNOs between NOAA-19 and METOP-C Satellite Orbit:

Table of predicted SNOs for the next 14.0 days since TLE Epoch: 5/10/2025
Index Date (NOAA-19) Time (NOAA-19) Lat,Lon (NOAA-19) SZA (NOAA-19 ) Date (METOP-C) Time (METOP-C) Lat,Lon (METOP-C) SZA (METOP-C ) Distance(km) Time Diff (sec)
1 05/18/2025 13:24:01 80.41, 56.90 68.74 05/18/2025 13:25:10 80.41, 56.85 68.77 1.17 69
2 05/18/2025 14:15:00 -80.39,-135.54 111.23 05/18/2025 14:15:49 -80.38,-135.37 111.17 3.20 49
3 05/18/2025 15:05:55 80.35, 32.24 68.85 05/18/2025 15:06:29 80.34, 32.36 68.89 2.31 34
4 05/18/2025 15:56:53 -80.31,-159.87 111.06 05/18/2025 15:57:08 -80.31,-159.87 111.05 0.16 15
5 05/18/2025 16:47:49 80.30, 7.58 68.96 05/18/2025 16:47:49 80.30, 7.54 68.96 0.87 0
6 05/18/2025 17:38:46 -80.23, 175.77 110.90 05/18/2025 17:38:27 -80.24, 175.62 110.94 3.07 19
7 05/18/2025 18:29:43 80.24, -17.10 69.08 05/18/2025 18:29:08 80.23, -16.97 69.08 2.61 35
8 05/18/2025 19:20:41 -80.19, 150.77 110.83 05/18/2025 19:19:47 -80.19, 150.79 110.87 0.34 54



Historial Predications of SNOs between NOAA-19 and METOP-C
